Location: Newark
(32.9167°N, 112.9667°W)
Time: 16:11:24
(UTC+00:00)

OTV 5 (USA 277) - Visible Passes

Search period start: 14 October 2019 00:00
Search period end: 24 October 2019 00:00
Orbit: 310 x 324 km, 54.5° (Epoch: 08 October)

Date Brightness Start Highest point End Pass type
(mag) Time Alt. Az. Time Alt. Az. Time Alt. Az.
19 Oct ? 12:25:46 10° N 12:27:21 14° NE 12:28:57 10° ENE visible
20 Oct ? 12:39:44 12° NNW 12:42:04 39° NE 12:44:38 10° ESE visible
21 Oct ? 12:54:32 15° WNW 12:56:36 47° SW 12:59:13 10° SSE visible
22 Oct ? 11:38:32 14° E 11:38:32 14° E 11:39:05 10° E visible
22 Oct ? 13:09:30 10° W 13:10:58 14° SW 13:12:26 10° SSW visible
23 Oct ? 11:53:35 15° SE 11:53:35 15° SE 11:54:10 10° SE visible
